Regional Weather Roundup
Issued by NWS Sterling, VA

Home | Current Version | Previous Version | Graphics & Text | Print | Product List | Glossary On
Versions: 1 2 3 4 5 6 7 8 9 10 11 12 13 14 15 16 17 18 19 20 21 22 23 24 25 26 27 28 29 30 31 32 33 34 35 36 37 38 39 40 41 42 43 44 45 46 47 48 49 50
000
ASUS41 KLWX 280611
RWRLWX

REGIONAL WEATHER ROUNDUP
NATIONAL WEATHER SERVICE BALTIMORE MD/WASHINGTON DC
200 AM EDT TUE MAR 28 2017

Note: "FAIR" indicates few or no clouds below 12,000 feet
with no significant weather and/or obstructions to visibility.
 TC=TEMPERATURE CELSIUS

 * =Non NWS site. Station does not report precipitation (e.g. rain,
    snow, etc.), thunder, or fog.

DCZ001-MDZ009-015-VAZ040>042-051-053>054-280700-
WASHINGTON METRO

CITY           SKY/WX    TMP DP  RH WIND       PRES   REMARKS
WASHINGTON NAT CLOUDY    57  55  93 CALM      29.89F
DULLES         CLOUDY    57  55  93 CALM      29.88F
ANDREWS AFB    CLOUDY    64  56  77 S7        29.88F
FT BELVOIR     MOCLDY    58  54  85 CALM      29.88F
QUANTICO       CLOUDY    61  56  83 SW7       29.90F
COLLEGE PARK*  MOCLDY    55  54  97 CALM      29.88F
LEESBURG*      CLOUDY    59  59 100 CALM      29.89F
MANASSAS*        N/A    N/A N/A N/A CALM      29.89F

$$

MDZ006>007-011-014-280700-
BALTIMORE METRO

CITY           SKY/WX    TMP DP  RH WIND       PRES   REMARKS
BWI AIRPORT    CLOUDY    55  54  96 CALM      29.89F
MD SCIENCE CTR   N/A     59  52  77 MISG      29.90F
MARTIN STATE   CLOUDY    54  54 100 CALM      29.92S
ANNAPOLIS      MOCLDY    58  53  84 S6        29.90S
FORT MEADE*      N/A     54  52  94 CALM      29.91F VSB 1/4

$$

MDZ012-015-019>023-280700-
MARYLAND EASTERN SHORE

CITY           SKY/WX    TMP DP  RH WIND       PRES   REMARKS
OCEAN CITY     CLOUDY    56  51  84 SW6       29.95F
SALISBURY      CLOUDY    58  54  86 S3        29.93F
BAY BRIDGE AP* MOCLDY    59  54  82 S8        29.90S
CAMBRIDGE*     CLEAR     57  54  88 S6        29.92F
EASTON*        CLOUDY    62  54  74 S6        29.95S

$$

MDZ017>025-280700-
SOUTHERN MARYLAND

CITY           SKY/WX    TMP DP  RH WIND       PRES   REMARKS
PATUXENT RIVER CLOUDY    65  57  75 SW13      29.91F
ST INIGOES     CLOUDY    64  55  72 S6        29.91F
LEONARDTOWN*   CLOUDY    64  54  68 S3        29.92F

$$

MDZ003>005-280700-
NORTH CENTRAL MARYLAND

CITY           SKY/WX    TMP DP  RH WIND       PRES   REMARKS
FREDERICK*     CLOUDY    50  50 100 CALM      29.92F FOG
HAGERSTOWN APT PTCLDY    52  50  93 N6        29.88F FOG
WESTMINSTER*   PTCLDY    57  55  94 CALM      29.90F

$$

MDZ501>502-280700-
WESTERN MARYLAND

CITY           SKY/WX    TMP DP  RH WIND       PRES   REMARKS
OAKLAND*       CLOUDY    52  48  87 SW9       29.94S
CUMBERLAND*    CLOUDY    57  54  88 NE5       29.93S

$$

VAZ025>031-280700-
SHENANDOAH VALLEY

CITY           SKY/WX    TMP DP  RH WIND       PRES   REMARKS
WINCHESTER*    MOCLDY    55  54  94 CALM      29.88F
FRONT ROYAL*   CLOUDY    59  55  88 S5        29.87F
LURAY*         MOCLDY    55  55 100 CALM      29.89F
NEW MARKET*    CLOUDY    54  53  95 CALM      29.88F
STAUNTON*      CLOUDY    52  51  98 CALM      29.92F FOG
WAYNESBORO*    MOCLDY    60  58  92 S3        29.91F

$$

WVZ021-048>050-054>055-280700-
EASTERN WEST VIRGINIA PANHANDLE

CITY           SKY/WX    TMP DP  RH WIND       PRES   REMARKS
MARTINSBURG    PTCLDY    54  51  90 N3        29.88F FOG
PETERSBURG*    CLOUDY    57  55  93 W5        29.90F

$$

VAZ036>039-050-280700-
CENTRAL FOOTHILLS

CITY           SKY/WX    TMP DP  RH WIND       PRES   REMARKS
CHARLOTTESVILL CLOUDY    62  56  80 S6        29.89F
CULPEPER*      MOCLDY    60  57  88 S3        29.90F
ORANGE*        MOCLDY    55  54  94 CALM      29.91F
GORDONSVILLE*  PTCLDY    56  54  95 CALM      29.90F
WARRENTON*     NOT AVBL

$$

VAZ055>057-280700-
NORTH AND CENTRAL PIEDMONT

CITY           SKY/WX    TMP DP  RH WIND       PRES   REMARKS
FREDERICKSBRG* CLOUDY    66  59  76 S7        29.89S
STAFFORD*      CLOUDY    65  58  78 S3        29.93F

$$

NCZ024-NYZ072-PAZ021-071-VAZ022-071-280700-
OTHER REGIONAL OBSERVATIONS

CITY           SKY/WX    TMP DP  RH WIND       PRES   REMARKS
NEW YORK CITY  CLOUDY    45  44  97 VRB5      30.00S FOG
PHILADELPHIA   CLOUDY    52  50  93 NE6       29.94F FOG
PITTSBURGH     CLOUDY    56  50  80 CALM      29.86F
ROANOKE        PTCLDY    63  54  72 E5        29.92F
RICHMOND       CLOUDY    65  56  72 S12       29.93F
RALEIGH        CLOUDY    66  54  65 S9        29.97F

$$

ANZ530>537-280700-
MARINE OBSERVATIONS

STATION/POSITION TIME  TEMP    WIND        PRES
                       AIR SEA DIR/SP/G
                 (UTC) (F)     (DEG/KT/KT) (MB)
THOMAS PT LIGHT  0600   53 46  180/  9/ 10   N/A
BALT KEY BRIDGE  0548   55     100/  4/  5 1012.4F
COVE POINT       0548   56     190/ 10/ 11 1013.4F
LEWISETTA        0548   66 53  220/ 12/ 15 1012.8F
SOLOMONS ISLAND  0548   62 48  200/ 13/ 15   N/A
PINEY POINT      0548          220/ 10/ 11   N/A

$$




USA.gov is the U.S. government's official web portal to all federal, state and local government web resources and services.